{"data":{"norad_id":55577,"epoch":"2026-05-24T19:44:33.603360Z","epoch_age_seconds":94311,"freshness":"FRESH","line1":"1 55577U 23020J   26144.82261115 -.00002867  00000+0 -94594-4 0  9998","line2":"2 55577  43.0031 295.4010 0003269 290.0998  69.9502 15.27603175180557","mean_motion":15.27603175,"eccentricity":0.0003269,"inclination_deg":43.0031,"raan_deg":295.401,"arg_perigee_deg":290.0998,"mean_anomaly_deg":69.9502,"bstar":-9.4594e-5,"rev_number":18055,"period_min":94.265318609331,"perigee_km":480.73680357971,"apogee_km":485.22260167989,"semimajor_km":6861.1167026298,"source":"CELESTRAK","updated_at":"2026-05-25T13:38:17.836089Z"}}